EW7114 Weather Reports


Display with metric or nautical units.
time (UTC)temp
F
wind
direction
speed
MPH
gust
MPH
rain 1hr
in
rain 24hr
in
rain mn
in
humidity
%
barometer
mb
20260902005026 77 180 13.0 28.0 0.00 0.00 0.00 41 1003.7
20260902004526 78 159 11.0 28.0 0.00 0.00 0.00 40 1003.7
20260902004021 78 149 19.0 25.0 0.00 0.00 0.00 40 1003.7
20260902003518 78 150 13.0 18.0 0.00 0.00 0.00 43 1003.7
20260902003024 78 139 12.0 22.0 0.00 0.00 0.00 43 1003.7
20260902002516 79 152 14.0 22.0 0.00 0.00 0.00 41 1003.8
20260902002015 79 165 14.0 23.0 0.00 0.00 0.00 41 1004.0
20260902001515 80 149 14.0 24.0 0.00 0.00 0.00 41 1003.9
20260902001012 79 153 15.0 26.0 0.00 0.00 0.00 41 1004.0
20260902000511 79 199 15.0 26.0 0.00 0.00 0.00 41 1004.1
20260902000010 79 164 17.0 24.0 0.00 0.00 0.00 40 1004.0
20260901235507 79 155 14.0 22.0 0.00 0.00 0.00 40 1004.0
20260901235006 78 170 16.0 22.0 0.00 0.00 0.00 42 1004.1
20260901234505 79 158 15.0 25.0 0.00 0.00 0.00 40 1004.1
20260901234004 80 164 17.0 25.0 0.00 0.00 0.00 39 1004.3
20260901233502 79 184 16.0 28.0 0.00 0.00 0.00 40 1004.2
20260901233100 79 183 15.0 26.0 0.00 0.00 0.00 39 1004.4
20260901232559 80 164 20.0 32.0 0.00 0.00 0.00 38 1004.3
20260901232057 80 156 20.0 32.0 0.00 0.00 0.00 38 1004.4
20260901231556 79 142 17.0 28.0 0.00 0.00 0.00 40 1004.5
20260901231054 78 125 20.0 28.0 0.00 0.00 0.00 40 1004.5
20260901230553 78 165 12.0 24.0 0.00 0.00 0.00 41 1004.6
20260901230052 79 141 18.0 25.0 0.00 0.00 0.00 39 1004.7
20260901225549 79 165 14.0 25.0 0.00 0.01 0.00 39 1004.7
20260901225048 79 165 14.0 26.0 0.00 0.01 0.00 41 1004.8
20260901224547 79 147 15.0 30.0 0.00 0.01 0.00 41 1004.9
20260901224047 79 174 19.0 30.0 0.00 0.01 0.00 41 1005.0
20260901223544 79 156 18.0 27.0 0.00 0.01 0.00 41 1004.8
20260901223047 78 163 19.0 25.0 0.00 0.01 0.00 42 1004.9
20260901222540 77 173 15.0 26.0 0.00 0.01 0.00 42 1005.1
20260901222039 77 176 17.0 26.0 0.00 0.01 0.00 42 1005.1
20260901221538 78 165 18.0 26.0 0.00 0.01 0.00 41 1005.2
20260901221038 79 160 18.0 29.0 0.00 0.01 0.00 39 1005.4
20260901220536 80 180 20.0 29.0 0.00 0.01 0.00 38 1005.4
20260901220037 80 154 19.0 31.0 0.00 0.01 0.00 39 1005.5
20260901215532 80 183 19.0 32.0 0.00 0.01 0.00 39 1005.7
20260901215030 81 182 23.0 39.0 0.00 0.01 0.00 38 1005.7
20260901214533 81 163 17.0 39.0 0.00 0.01 0.00 39 1005.8
20260901214028 80 134 19.0 35.0 0.00 0.01 0.00 37 1005.7
20260901213526 80 155 17.0 32.0 0.00 0.01 0.00 39 1006.0
20260901213030 79 157 23.0 32.0 0.00 0.01 0.00 37 1006.0
20260901212522 78 160 18.0 29.0 0.00 0.01 0.00 42 1006.2
20260901212021 78 178 18.0 25.0 0.00 0.01 0.00 40 1006.2
20260901211520 79 169 19.0 32.0 0.00 0.01 0.00 40 1006.4
20260901211018 80 160 20.0 32.0 0.00 0.01 0.00 41 1006.5
20260901210517 79 151 21.0 28.0 0.00 0.01 0.00 43 1006.6
20260901210016 78 190 15.0 22.0 0.00 0.01 0.00 45 1006.6
20260901205514 78 165 17.0 27.0 0.00 0.01 0.00 46 1006.8
20260901205013 78 182 19.0 30.0 0.00 0.01 0.00 44 1007.0
20260901204513 78 169 21.0 30.0 0.00 0.01 0.00 43 1006.9
20260901204011 79 163 19.0 29.0 0.00 0.01 0.00 46 1006.9
20260901203509 78 181 17.0 31.0 0.00 0.01 0.00 45 1007.1
20260901203009 77 132 17.0 30.0 0.00 0.01 0.00 47 1007.2
20260901202506 78 163 21.0 34.0 0.00 0.01 0.00 46 1007.2
20260901202004 78 138 21.0 33.0 0.00 0.01 0.00 46 1007.2
20260901201503 78 170 24.0 30.0 0.00 0.01 0.00 46 1007.4
20260901201002 77 142 18.0 23.0 0.00 0.01 0.00 47 1007.3
20260901200600 76 149 17.0 24.0 0.00 0.01 0.00 47 1007.5
20260901200059 76 163 14.0 29.0 0.00 0.01 0.00 47 1007.6
20260901195558 76 167 17.0 25.0 0.00 0.01 0.00 47 1007.6
20260901195057 77 159 15.0 25.0 0.00 0.01 0.00 47 1007.5
20260901194559 77 145 19.0 26.0 0.00 0.01 0.00 46 1007.7
20260901194053 76 168 19.0 26.0 0.00 0.01 0.00 47 1007.6
20260901193552 76 175 17.0 24.0 0.00 0.01 0.00 46 1007.9
20260901193054 77 160 18.0 26.0 0.00 0.01 0.00 46 1007.9
20260901192548 76 194 16.0 26.0 0.00 0.01 0.00 48 1008.0
20260901192048 76 161 19.0 26.0 0.00 0.01 0.00 48 1008.0
20260901191546 76 130 15.0 25.0 0.00 0.01 0.00 48 1008.1
20260901191044 75 170 18.0 25.0 0.00 0.01 0.00 49 1008.2
20260901190543 75 159 13.0 24.0 0.00 0.01 0.00 50 1008.1
20260901190045 74 162 18.0 24.0 0.00 0.01 0.00 50 1008.2
20260901185541 74 153 17.0 24.0 0.00 0.01 0.00 50 1008.2
20260901185039 74 141 17.0 24.0 0.00 0.01 0.00 50 1008.2
20260901184545 74 122 18.0 28.0 0.00 0.01 0.00 50 1008.2
20260901184036 74 145 20.0 32.0 0.00 0.01 0.00 50 1008.3
20260901183534 74 135 17.0 32.0 0.00 0.01 0.00 50 1008.2
20260901183035 74 124 18.0 25.0 0.00 0.01 0.00 50 1008.2
20260901182531 74 134 16.0 24.0 0.00 0.01 0.00 50 1008.2
20260901182031 74 126 15.0 24.0 0.00 0.01 0.00 50 1008.3
20260901181533 74 119 19.0 24.0 0.00 0.01 0.00 50 1008.3
20260901181026 73 162 14.0 24.0 0.00 0.01 0.00 50 1008.6
20260901180525 73 126 19.0 26.0 0.00 0.01 0.00 50 1008.6
20260901180024 73 133 17.0 26.0 0.00 0.01 0.00 50 1008.7
20260901175522 73 138 18.0 25.0 0.00 0.01 0.00 50 1008.8
20260901175021 73 125 16.0 25.0 0.00 0.01 0.00 49 1008.8
20260901174519 72 132 17.0 25.0 0.00 0.01 0.00 49 1008.8
20260901174018 72 104 16.0 25.0 0.00 0.01 0.00 48 1008.9
20260901173520 71 113 11.0 19.0 0.00 0.01 0.00 48 1009.0
20260901173015 72 115 13.0 21.0 0.00 0.01 0.00 49 1009.2
20260901172515 72 122 13.0 21.0 0.00 0.01 0.00 48 1009.1
20260901172012 71 133 15.0 19.0 0.00 0.01 0.00 47 1009.1
20260901171512 71 111 13.0 19.0 0.00 0.01 0.00 46 1009.2
20260901171009 70 92 11.0 16.0 0.00 0.01 0.00 44 1009.3
20260901170507 70 113 10.0 15.0 0.00 0.01 0.00 45 1009.3
20260901170007 69 132 10.0 19.0 0.00 0.01 0.00 46 1009.5
20260901165504 69 125 12.0 19.0 0.00 0.01 0.00 46 1009.7
20260901165005 69 137 11.0 19.0 0.00 0.01 0.00 44 1009.7
20260901164502 69 124 9.0 19.0 0.00 0.01 0.00 46 1009.7
20260901164100 70 165 7.0 16.0 0.00 0.01 0.00 46 1009.7
20260901163559 70 135 10.0 17.0 0.00 0.01 0.00 47 1009.7
20260901163057 70 117 10.0 17.0 0.00 0.01 0.00 47 1009.7
20260901162558 70 143 10.0 15.0 0.00 0.01 0.00 46 1009.8
20260901162053 70 154 11.0 17.0 0.00 0.01 0.00 45 1010.0
20260901161554 69 167 11.0 17.0 0.00 0.01 0.00 45 1010.0
20260901161050 69 154 11.0 17.0 0.00 0.01 0.00 45 1010.1
20260901160549 69 137 10.0 15.0 0.00 0.01 0.00 44 1010.2
20260901160048 68 144 10.0 15.0 0.00 0.01 0.00 41 1010.3
20260901155547 67 157 8.0 15.0 0.00 0.01 0.00 39 1010.4
20260901155045 67 185 9.0 15.0 0.00 0.01 0.00 36 1010.5
20260901154544 67 178 9.0 15.0 0.00 0.01 0.00 30 1010.6
20260901154042 67 191 9.0 15.0 0.00 0.01 0.00 26 1010.6
20260901153545 67 193 10.0 14.0 0.00 0.01 0.00 25 1010.6
20260901153042 66 191 8.0 13.0 0.00 0.01 0.00 13 1010.8
20260901152537 65 174 9.0 13.0 0.00 0.01 0.00 9 1010.8
20260901152036 65 153 9.0 13.0 0.00 0.01 0.00 2 1010.9
20260901151535 64 199 9.0 13.0 0.00 0.01 0.00 1 1010.9
20260901151035 64 209 9.0 13.0 0.00 0.01 0.00 1 1011.0
20260901150531 63 199 10.0 13.0 0.00 0.01 0.00 1 1011.0
20260901150031 63 176 9.0 13.0 0.00 0.01 0.00 1 1011.1
20260901145530 63 212 9.0 13.0 0.00 0.01 0.00 1 1011.1
20260901145028 62 185 8.0 14.0 0.00 0.01 0.00 1 1011.1
20260901144529 62 203 7.0 13.0 0.00 0.01 0.00 1 1011.1
20260901144024 62 199 9.0 13.0 0.00 0.01 0.00 1 1011.1
20260901143523 61 207 8.0 12.0 0.00 0.01 0.00 1 1011.1
20260901143022 61 197 9.0 12.0 0.00 0.01 0.00 1 1011.0
20260901142521 60 197 9.0 14.0 0.00 0.01 0.00 1 1011.1
20260901142018 60 195 11.0 14.0 0.00 0.01 0.00 1 1011.1
20260901141531 60 200 10.0 13.0 0.00 0.01 0.00 1 1011.1
20260901141016 59 202 9.0 12.0 0.00 0.01 0.00 1 1011.0
20260901140514 59 188 8.0 12.0 0.00 0.01 0.00 1 1011.0
20260901140012 58 200 8.0 12.0 0.00 0.01 0.00 1 1011.0
20260901135511 58 199 9.0 13.0 0.00 0.01 0.00 1 1011.0
20260901135010 57 208 8.0 12.0 0.00 0.01 0.00 1 1010.9
20260901134511 56 198 9.0 12.0 0.00 0.01 0.00 1 1010.8
20260901134012 55 193 9.0 11.0 0.00 0.01 0.00 1 1010.7
20260901133506 55 211 9.0 11.0 0.00 0.01 0.00 1 1010.7
20260901133005 54 206 9.0 11.0 0.00 0.01 0.00 1 1010.7
20260901132504 54 207 7.0 10.0 0.00 0.01 0.00 1 1010.7
20260901132004 53 204 6.0 8.0 0.00 0.01 0.00 1 1010.7
20260901131604 53 201 5.0 7.0 0.00 0.01 0.00 1 1010.7
20260901131058 53 215 5.0 8.0 0.00 0.01 0.00 1 1010.7
20260901130557 53 209 6.0 9.0 0.00 0.01 0.00 1 1010.6
20260901130055 53 209 6.0 9.0 0.00 0.01 0.00 1 1010.6
20260901125554 53 207 5.0 8.0 0.00 0.01 0.00 1 1010.5
20260901125053 53 207 6.0 8.0 0.00 0.01 0.00 1 1010.5
20260901124555 53 187 5.0 8.0 0.00 0.01 0.00 1 1010.5
20260901124052 53 194 6.0 9.0 0.00 0.01 0.00 1 1010.5
20260901123548 53 195 7.0 9.0 0.00 0.01 0.00 1 1010.5
20260901123046 54 209 6.0 10.0 0.00 0.01 0.00 1 1010.5
20260901122545 54 199 7.0 11.0 0.00 0.01 0.00 1 1010.5
20260901122047 54 205 8.0 10.0 0.00 0.01 0.00 1 1010.5
20260901121545 54 199 8.0 10.0 0.00 0.01 0.00 1 1010.5
20260901121040 54 194 7.0 10.0 0.00 0.01 0.00 1 1010.4
20260901120539 54 205 8.0 11.0 0.00 0.01 0.00 1 1010.5
20260901120037 54 184 7.0 11.0 0.00 0.01 0.00 1 1010.5
20260901115536 54 185 7.0 10.0 0.00 0.01 0.00 1 1010.5
20260901115035 54 196 6.0 9.0 0.00 0.01 0.00 1 1010.6
20260901114550 54 194 7.0 9.0 0.00 0.01 0.00 1 1010.5
20260901114031 54 205 7.0 10.0 0.00 0.01 0.00 1 1010.5
20260901113530 53 195 7.0 9.0 0.00 0.01 0.00 1 1010.4
20260901113028 53 195 6.0 9.0 0.00 0.01 0.00 1 1010.4
20260901112527 54 204 6.0 10.0 0.00 0.01 0.00 1 1010.3
20260901112025 54 213 8.0 10.0 0.00 0.01 0.00 1 1010.2
20260901111524 53 200 7.0 10.0 0.00 0.01 0.00 1 1010.3
20260901111023 53 215 6.0 9.0 0.00 0.01 0.00 1 1010.2
20260901110521 53 217 7.0 11.0 0.00 0.01 0.00 1 1010.2
20260901110021 53 214 8.0 11.0 0.00 0.01 0.00 1 1010.3
20260901105519 53 218 6.0 8.0 0.00 0.01 0.00 1 1010.3
20260901105016 53 209 6.0 9.0 0.00 0.01 0.00 1 1010.4
20260901104515 53 195 6.0 12.0 0.00 0.01 0.00 1 1010.4
20260901104014 53 205 7.0 9.0 0.00 0.01 0.00 1 1010.5
20260901103512 52 201 6.0 9.0 0.00 0.01 0.00 1 1010.5
20260901103011 52 199 6.0 9.0 0.00 0.01 0.00 1 1010.5
20260901102514 52 205 7.0 9.0 0.00 0.01 0.00 1 1010.6
20260901102008 52 203 5.0 7.0 0.00 0.01 0.00 1 1010.6
20260901101506 52 214 5.0 7.0 0.00 0.01 0.00 1 1010.5
20260901101005 52 211 6.0 7.0 0.00 0.01 0.00 1 1010.5
20260901100504 52 202 6.0 8.0 0.00 0.01 0.00 1 1010.6
20260901100001 52 199 5.0 8.0 0.00 0.01 0.00 1 1010.6
20260901095601 52 203 6.0 9.0 0.00 0.01 0.00 1 1010.6
20260901095059 52 198 7.0 9.0 0.00 0.01 0.00 1 1010.6
20260901094558 52 193 7.0 8.0 0.00 0.01 0.00 1 1010.7
20260901094059 52 192 6.0 8.0 0.00 0.01 0.00 1 1010.7
20260901093555 53 203 6.0 8.0 0.00 0.01 0.00 1 1010.7
20260901093053 53 205 6.0 8.0 0.00 0.01 0.00 1 1010.6
20260901092552 53 205 5.0 7.0 0.00 0.01 0.00 1 1010.6
20260901092050 53 205 5.0 6.0 0.00 0.01 0.00 1 1010.7
20260901091553 53 205 4.0 7.0 0.00 0.01 0.00 1 1010.7
20260901091049 54 205 5.0 8.0 0.00 0.01 0.00 1 1010.7
20260901090545 54 199 6.0 9.0 0.00 0.01 0.00 1 1010.7
20260901090044 54 207 6.0 9.0 0.00 0.01 0.00 1 1010.6
20260901085542 54 211 6.0 8.0 0.00 0.01 0.00 1 1010.6
20260901085041 54 208 6.0 9.0 0.00 0.01 0.00 1 1010.6
20260901084540 54 197 7.0 9.0 0.00 0.01 0.00 1 1010.5
20260901084039 54 197 4.0 9.0 0.00 0.01 0.00 1 1010.5
20260901083537 54 196 6.0 10.0 0.00 0.01 0.00 1 1010.6
20260901083036 54 199 7.0 10.0 0.00 0.01 0.00 1 1010.7
20260901082533 54 199 7.0 10.0 0.00 0.01 0.00 1 1010.7
20260901082032 54 204 6.0 10.0 0.00 0.01 0.00 1 1010.7
20260901081538 55 209 7.0 10.0 0.00 0.01 0.00 1 1010.8
20260901081029 54 202 8.0 10.0 0.00 0.01 0.00 1 1010.9
20260901080531 54 196 7.0 10.0 0.00 0.01 0.00 1 1010.9
20260901080516 54 197 7.0 10.0 0.00 0.01 0.00 1 1010.9
20260901080010 54 197 8.0 10.0 0.00 0.01 0.00 1 1010.8
20260901075508 54 195 8.0 10.0 0.00 0.01 0.00 1 1010.8
20260901075010 54 183 7.0 10.0 0.00 0.01 0.00 1 1010.8
20260901074505 54 202 7.0 10.0 0.00 0.01 0.00 1 1010.9
20260901074003 55 195 8.0 10.0 0.00 0.01 0.00 1 1011.0
20260901073502 55 214 8.0 11.0 0.00 0.01 0.00 1 1011.0
20260901073102 55 206 8.0 14.0 0.00 0.01 0.00 1 1010.9
20260901072559 55 220 9.0 14.0 0.00 0.01 0.00 1 1011.0
20260901072059 55 221 8.0 11.0 0.00 0.01 0.00 1 1011.0
20260901071557 55 205 9.0 12.0 0.00 0.01 0.00 1 1010.9
20260901071056 55 224 10.0 12.0 0.00 0.01 0.00 1 1010.9
20260901070554 55 212 10.0 13.0 0.00 0.01 0.00 1 1011.0
20260901070053 55 228 8.0 11.0 0.00 0.01 0.00 1 1010.9
20260901065550 55 209 8.0 11.0 0.00 0.01 0.00 1 1011.1
20260901065049 55 207 8.0 11.0 0.00 0.01 0.00 1 1011.0
20260901064548 55 204 8.0 11.0 0.00 0.01 0.00 1 1011.1
20260901064045 55 211 8.0 10.0 0.00 0.01 0.00 1 1011.1
20260901063544 56 210 7.0 10.0 0.00 0.01 0.00 1 1011.1
20260901063045 56 210 8.0 10.0 0.00 0.01 0.00 1 1011.1
20260901062545 56 207 6.0 9.0 0.00 0.01 0.00 1 1011.1
20260901062040 57 201 7.0 11.0 0.00 0.01 0.00 1 1011.0
20260901061539 57 199 7.0 11.0 0.00 0.01 0.00 1 1011.0
20260901061038 57 211 9.0 10.0 0.00 0.01 0.00 1 1011.0
20260901060535 57 189 7.0 10.0 0.00 0.01 0.00 1 1011.1
20260901060035 57 215 6.0 9.0 0.00 0.01 0.00 1 1011.2
20260901055534 57 202 7.0 11.0 0.00 0.01 0.01 1 1011.1
20260901055035 57 206 8.0 11.0 0.00 0.01 0.01 1 1011.2
20260901054535 57 203 7.0 11.0 0.00 0.01 0.01 1 1011.2
20260901054034 57 201 8.0 11.0 0.00 0.01 0.01 1 1011.2
20260901053534 57 213 8.0 11.0 0.00 0.01 0.01 1 1011.2
20260901053034 57 203 8.0 11.0 0.00 0.01 0.01 1 1011.2
20260901052533 58 198 8.0 12.0 0.00 0.01 0.01 1 1011.2
20260901052033 58 201 9.0 12.0 0.00 0.01 0.01 1 1011.1
20260901051535 58 196 9.0 12.0 0.00 0.01 0.01 1 1011.1
20260901051033 58 171 8.0 12.0 0.00 0.01 0.01 1 1011.2
20260901050529 58 176 8.0 11.0 0.00 0.01 0.01 1 1011.3
20260901050028 58 164 9.0 11.0 0.00 0.01 0.01 1 1011.3
20260901045527 58 180 8.0 12.0 0.00 0.01 0.01 1 1011.3
20260901045025 58 168 7.0 12.0 0.00 0.01 0.01 1 1011.4
20260901044527 59 174 5.0 10.0 0.00 0.01 0.01 1 1011.5
20260901044023 59 151 7.0 13.0 0.00 0.01 0.01 1 1011.4
20260901043521 59 157 9.0 14.0 0.00 0.01 0.01 1 1011.5
20260901043023 59 142 9.0 14.0 0.00 0.01 0.01 1 1011.6
20260901042518 58 130 8.0 12.0 0.00 0.01 0.01 1 1011.6
20260901042016 58 163 6.0 9.0 0.00 0.01 0.01 1 1011.6
20260901041516 58 180 5.0 10.0 0.00 0.01 0.01 1 1011.6
20260901041014 59 165 6.0 11.0 0.00 0.01 0.01 1 1011.6
20260901040513 59 179 8.0 15.0 0.00 0.01 0.01 1 1011.6
20260901040012 59 168 8.0 15.0 0.00 0.01 0.01 1 1011.6
20260901035509 59 149 11.0 18.0 0.00 0.01 0.01 1 1011.5
20260901035008 58 140 10.0 17.0 0.00 0.01 0.01 1 1011.5
20260901034515 58 157 6.0 9.0 0.00 0.01 0.01 1 1011.5
20260901034004 58 192 5.0 10.0 0.00 0.01 0.01 1 1011.7
20260901033503 58 203 6.0 15.0 0.00 0.01 0.01 1 1011.7
20260901033006 58 173 8.0 14.0 0.00 0.01 0.01 1 1011.6
20260901032601 58 195 10.0 14.0 0.00 0.01 0.01 1 1011.5
20260901032058 58 183 8.0 12.0 0.00 0.01 0.01 1 1011.4
20260901031557 58 207 10.0 14.0 0.00 0.01 0.01 1 1011.4
20260901031056 57 184 9.0 12.0 0.00 0.01 0.01 1 1011.3
20260901030555 58 175 8.0 13.0 0.00 0.01 0.01 1 1011.2
20260901030053 58 201 9.0 14.0 0.00 0.01 0.01 1 1011.2
20260901025551 58 193 11.0 15.0 0.00 0.01 0.01 1 1011.2
20260901025050 58 187 10.0 15.0 0.00 0.01 0.01 1 1011.1
20260901024548 58 176 11.0 15.0 0.00 0.01 0.01 1 1011.1
20260901024048 58 191 10.0 18.0 0.00 0.01 0.01 1 1011.0
20260901023545 59 203 11.0 18.0 0.00 0.01 0.01 1 1011.0
20260901023044 59 178 11.0 21.0 0.00 0.01 0.01 1 1010.9
20260901022542 59 189 14.0 22.0 0.00 0.01 0.01 1 1010.9
20260901022041 59 158 13.0 22.0 0.00 0.01 0.01 1 1010.8
20260901021539 60 186 15.0 23.0 0.00 0.01 0.01 1 1010.6
20260901021038 60 167 15.0 23.0 0.00 0.01 0.01 1 1010.5
20260901020536 61 176 13.0 21.0 0.00 0.01 0.01 6 1010.5
20260901020035 61 194 13.0 16.0 0.00 0.01 0.01 6 1010.4
20260901015532 61 209 12.0 18.0 0.00 0.01 0.01 9 1010.4
20260901015034 61 197 13.0 18.0 0.00 0.01 0.01 12 1010.4
20260901014530 61 181 10.0 16.0 0.00 0.01 0.01 19 1010.4
20260901014033 62 195 8.0 20.0 0.00 0.01 0.01 26 1010.3
20260901013528 62 171 8.0 20.0 0.00 0.01 0.01 27 1010.3
20260901013039 62 149 9.0 18.0 0.00 0.01 0.01 25 1010.3
20260901012525 62 189 11.0 18.0 0.00 0.01 0.01 23 1010.4
20260901012027 62 192 11.0 16.0 0.00 0.01 0.01 23 1010.3
20260901011533 62 202 9.0 14.0 0.00 0.01 0.01 24 1010.4
20260901011020 62 186 8.0 15.0 0.00 0.01 0.01 23 1010.4
20260901010520 62 144 11.0 17.0 0.00 0.01 0.01 22 1010.5
20260901010017 62 155 13.0 18.0 0.00 0.01 0.01 22 1010.5
20260901005514 62 147 13.0 18.0 0.00 0.01 0.01 20 1010.5